Home > Weather > Linz > Past weeks

Flag for Austria Weather for the Past 2 Weeks in Linz, Upper Austria, Austria

Now
43 °F

Clear.


Feels Like: 43 °F
Forecast: 40 / 51 °F
Wind: 2 mph from North

Location: Linz / Hoersching-Flughafen

Current Time: Feb 7, 2016 at 6:42:38 PM

Latest Report: Feb 7, 2016 at 5:50 PM


Visibility: 10 mi

Pressure: 29.71 "Hg

Humidity: 81%

Dew point: 37 °F

Location of LinzLocation

Historic Weather in Linz — Graph

°F

Linz Temperature Yesterday

Maximum temperature yesterday: 45 °F (at 2:20 PM)
Minimum temperature yesterday: 27 °F (at 7:20 AM)
Average temperature yesterday: 36 °F

High & Low Weather Summary for the Past Weeks

 TemperatureHumidityPressure
High55 °F (Jan 28, 2:20 PM)100% (Jan 23, 5:20 PM)30.60 "Hg (Jan 23, 5:20 PM)
Low27 °F (Jan 27, 3:20 AM)55% (Jan 28, 2:20 PM)29.68 "Hg (Feb 7, 3:20 PM)
Average39 °F89%30.22 "Hg
* Reported Jan 23 4:20 PM — Feb 7 4:50 PM, Linz, Weather by CustomWeather, © 2016

Note: Actual official high and low records may vary slightly from our data, if they occured in-between our weather recording intervals... More about our weather records

Advertising

Linz Weather History for the Previous 24 Hours

 ConditionsComfort  
Time TempWeatherWind HumidityBarometerVisibility
4:50 PM
Sun, Feb 7
46 °FSunny.1 mph71%29.71 "Hg10 mi
4:20 PM46 °FSunny.2 mph71%29.71 "Hg10 mi
3:50 PM46 °FSunny.5 mph71%29.68 "Hg10 mi
3:20 PM48 °FSunny.7 mph66%29.68 "Hg10 mi
2:50 PM48 °FSunny.7 mph66%29.71 "Hg10 mi
2:20 PM46 °FSunny.10 mph71%29.71 "Hg10 mi
1:50 PM46 °FSunny.10 mph66%29.71 "Hg10 mi
1:20 PM45 °FSunny.12 mph71%29.71 "Hg10 mi
12:50 PM43 °FSunny.10 mph76%29.74 "Hg10 mi
12:20 PM43 °FSunny.9 mph71%29.77 "Hg10 mi
11:50 AM39 °FSunny.8 mph81%29.77 "Hg10 mi
11:20 AM37 °FPartly sunny.7 mph87%29.80 "HgN/A
10:50 AM37 °FPartly sunny.8 mph81%29.80 "HgN/A
10:20 AM36 °FSunny.6 mph87%29.80 "Hg10 mi
9:50 AM34 °FPartly sunny.1 mph93%29.80 "Hg5 mi
9:20 AM30 °FPartly sunny.No wind100%29.80 "Hg4 mi
8:50 AM30 °FPartly sunny.2 mph93%29.80 "Hg4 mi
8:20 AM28 °FPartly sunny.2 mph93%29.83 "Hg4 mi
7:50 AM28 °FFog.2 mph93%29.83 "Hg4 mi
7:20 AM28 °FFog.2 mph93%29.80 "Hg4 mi
6:50 AM28 °FFog.1 mph100%29.80 "HgN/A
6:20 AM30 °FClear.1 mph93%29.80 "Hg10 mi
5:50 AM32 °FClear.2 mph93%29.80 "Hg10 mi
5:20 AM34 °FClear.7 mph93%29.80 "Hg10 mi
4:50 AM34 °FClear.5 mph93%29.80 "Hg10 mi
4:20 AM34 °FClear.6 mph93%29.80 "Hg10 mi
3:50 AM36 °FClear.8 mph87%29.80 "Hg10 mi
3:20 AM36 °FPassing clouds.9 mph87%29.80 "HgN/A
2:50 AM37 °FChilly.9 mph87%29.83 "HgN/A
2:20 AM36 °FPassing clouds.7 mph87%29.83 "HgN/A
1:50 AM34 °FChilly.6 mph93%29.86 "HgN/A
12:50 AM34 °FChilly.8 mph93%29.86 "HgN/A
11:50 PM
Sat, Feb 6
37 °FChilly.9 mph87%29.89 "HgN/A
10:50 PM37 °FPassing clouds.3 mph93%29.92 "HgN/A
9:50 PM39 °FClear.3 mph87%29.95 "Hg10 mi
9:20 PM41 °FClear.5 mph87%29.95 "Hg10 mi
8:50 PM43 °FClear.6 mph81%29.98 "Hg10 mi
8:20 PM43 °FClear.5 mph81%29.98 "Hg10 mi
7:50 PM43 °FClear.9 mph81%29.98 "Hg10 mi
7:20 PM43 °FClear.7 mph81%30.01 "Hg10 mi
6:50 PM43 °FClear.10 mph81%30.01 "Hg10 mi
6:20 PM43 °FClear.6 mph76%30.01 "Hg10 mi
Weather by CustomWeather, © 2016

See weather overviewHow to use our weather pages